GW0392 Weather Reports


Display with metric or nautical units.
time (UTC)temp
F
wind
direction
speed
MPH
gust
MPH
rain 1hr
in
rain 24hr
in
rain mn
in
humidity
%
barometer
mb
20260903131043 76 225 0.0 0.0 0.00 0.00 0.00 96 1018.8
20260903130538 75 225 0.0 0.0 0.00 0.00 0.00 97 1018.6
20260903130033 75 223 0.0 0.0 0.00 0.00 0.00 98 1018.7
20260903125531 74 223 0.0 0.0 0.00 0.00 0.00 98 1018.8
20260903125027 74 223 0.0 0.0 0.00 0.00 0.00 99 1018.9
20260903124526 74 223 0.0 0.0 0.00 0.00 0.00 99 1018.7
20260903124021 73 223 0.0 0.0 0.00 0.00 0.00 99 1018.8
20260903123521 73 224 0.0 0.0 0.00 0.00 0.00 99 1018.8
20260903123019 73 220 0.0 0.0 0.00 0.00 0.00 99 1018.9
20260903122513 73 220 0.0 0.0 0.00 0.00 0.00 99 1018.7
20260903122008 73 220 0.0 0.0 0.00 0.00 0.00 99 1019.1
20260903121503 73 220 0.0 0.0 0.00 0.00 0.00 99 1018.7
20260903120959 72 220 0.0 0.0 0.00 0.00 0.00 99 1018.7
20260903120457 72 220 0.0 0.0 0.00 0.00 0.00 99 1018.8
20260903115956 72 220 0.0 0.0 0.00 0.00 0.00 99 1018.5
20260903115455 72 220 0.0 0.0 0.00 0.00 0.00 99 1018.4
20260903114950 72 220 0.0 0.0 0.00 0.00 0.00 99 1018.5
20260903114445 72 220 0.0 0.0 0.00 0.00 0.00 99 1018.4
20260903113941 72 221 0.0 0.0 0.00 0.00 0.00 99 1018.4
20260903113437 72 221 0.0 0.0 0.00 0.00 0.00 99 1018.4
20260903112932 72 221 0.0 0.0 0.00 0.00 0.00 99 1018.0
20260903112428 72 221 0.0 0.0 0.00 0.00 0.00 99 1018.2
20260903111926 72 221 0.0 0.0 0.00 0.00 0.00 99 1018.0
20260903111421 72 219 0.0 0.0 0.00 0.00 0.00 99 1018.1
20260903110918 72 222 0.0 0.0 0.00 0.00 0.00 99 1018.1
20260903110413 72 222 0.0 0.0 0.00 0.00 0.00 99 1018.1
20260903105908 72 222 0.0 0.0 0.00 0.00 0.00 99 1018.0
20260903105403 72 222 0.0 0.0 0.00 0.00 0.00 99 1017.8
20260903104902 72 223 0.0 0.0 0.00 0.00 0.00 99 1017.7
20260903104357 72 223 0.0 0.0 0.00 0.00 0.00 99 1018.0
20260903103854 72 223 0.0 0.0 0.00 0.00 0.00 99 1017.7
20260903103350 72 223 0.0 0.0 0.00 0.00 0.00 99 1018.0
20260903102845 72 223 0.0 0.0 0.00 0.00 0.00 99 1017.9
20260903102344 72 222 0.0 0.0 0.00 0.00 0.00 99 1018.0
20260903101839 72 222 0.0 0.0 0.00 0.00 0.00 99 1017.7
20260903101334 72 222 0.0 0.0 0.00 0.00 0.00 99 1017.8
20260903100829 72 222 0.0 0.0 0.00 0.00 0.00 99 1018.0
20260903100324 72 222 0.0 0.0 0.00 0.00 0.00 99 1017.9
20260903095821 72 222 0.0 0.0 0.00 0.00 0.00 99 1018.0
20260903095315 72 222 0.0 0.0 0.00 0.00 0.00 99 1017.7
20260903094810 73 222 0.0 0.0 0.00 0.00 0.00 99 1017.9
20260903094305 73 222 0.0 0.0 0.00 0.00 0.00 99 1017.7
20260903093801 73 222 0.0 0.0 0.00 0.00 0.00 99 1017.8
20260903093256 73 221 0.0 0.0 0.00 0.00 0.00 99 1017.7
20260903092755 73 221 0.0 0.0 0.00 0.00 0.00 98 1017.7
20260903092245 73 221 0.0 0.0 0.00 0.00 0.00 98 1017.8
20260903091744 73 221 0.0 0.0 0.00 0.00 0.00 98 1017.8
20260903091238 73 221 0.0 0.0 0.00 0.00 0.00 98 1017.8
20260903090734 73 221 0.0 0.0 0.00 0.00 0.00 98 1017.8
20260903090232 73 222 0.0 0.0 0.00 0.00 0.00 98 1017.7
20260903085726 73 222 0.0 0.0 0.00 0.00 0.00 98 1017.5
20260903085221 73 222 0.0 0.0 0.00 0.00 0.00 98 1017.7
20260903084719 73 222 0.0 0.0 0.00 0.00 0.00 98 1017.8
20260903084214 73 224 0.0 0.0 0.00 0.00 0.00 98 1017.7
20260903083710 73 223 0.0 0.0 0.00 0.00 0.00 98 1017.7
20260903083209 73 223 0.0 0.0 0.00 0.00 0.00 98 1017.7
20260903082703 73 225 0.0 0.0 0.00 0.00 0.00 98 1017.4
20260903082159 73 223 0.0 0.0 0.00 0.00 0.00 98 1017.4
20260903081654 73 223 0.0 0.0 0.00 0.00 0.00 98 1017.5
20260903081150 73 223 0.0 0.0 0.00 0.00 0.00 98 1017.5
20260903080645 73 221 0.0 0.0 0.00 0.00 0.00 98 1017.5
20260903080143 73 221 0.0 0.0 0.00 0.00 0.00 98 1017.5
20260903075642 73 220 0.0 0.0 0.00 0.00 0.00 97 1017.5
20260903075137 73 222 0.0 0.0 0.00 0.00 0.00 97 1017.4
20260903074636 73 222 0.0 0.0 0.00 0.00 0.00 97 1017.4
20260903074132 74 222 0.0 0.0 0.00 0.00 0.00 97 1017.3
20260903073627 74 222 0.0 0.0 0.00 0.00 0.00 97 1017.2
20260903073122 74 222 0.0 0.0 0.00 0.00 0.00 97 1017.4
20260903072618 74 220 0.0 0.0 0.00 0.00 0.00 97 1017.2
20260903072114 74 219 0.0 0.0 0.00 0.00 0.00 96 1017.3
20260903071611 74 223 0.0 0.0 0.00 0.00 0.00 96 1017.4
20260903071110 74 223 0.0 0.0 0.00 0.00 0.00 96 1017.7
20260903070605 74 222 0.0 0.0 0.00 0.00 0.00 96 1017.3
20260903065600 74 222 0.0 0.0 0.00 0.00 0.00 96 1017.4
20260903065055 74 223 0.0 0.0 0.00 0.00 0.00 96 1017.2
20260903064555 74 223 0.0 0.0 0.00 0.00 0.00 96 1017.4
20260903064050 74 221 0.0 0.0 0.00 0.00 0.00 95 1017.4
20260903063545 74 221 0.0 0.0 0.00 0.00 0.00 95 1017.4
20260903063041 74 221 0.0 0.0 0.00 0.00 0.00 95 1017.4
20260903062536 74 221 0.0 0.0 0.00 0.00 0.00 95 1017.4
20260903062031 74 221 0.0 0.0 0.00 0.00 0.00 95 1017.3
20260903061527 74 220 0.0 0.0 0.00 0.00 0.00 95 1017.4
20260903061026 74 220 0.0 0.0 0.00 0.00 0.00 95 1017.4
20260903060526 74 220 0.0 0.0 0.00 0.00 0.00 95 1017.7
20260903060021 74 220 0.0 0.0 0.00 0.00 0.00 95 1017.5
20260903055518 75 220 0.0 0.0 0.00 0.00 0.00 95 1017.5
20260903055018 75 218 0.0 0.0 0.00 0.00 0.00 95 1017.5
20260903054513 75 221 0.0 0.0 0.00 0.00 0.00 94 1017.7
20260903054008 75 221 0.0 0.0 0.00 0.00 0.00 94 1017.4
20260903053503 75 221 0.0 0.0 0.00 0.00 0.00 94 1017.5
20260903052959 75 221 0.0 0.0 0.00 0.00 0.00 94 1017.7
20260903052455 75 221 0.0 0.0 0.00 0.00 0.00 94 1017.5
20260903051950 75 221 0.0 0.0 0.00 0.00 0.00 94 1017.7
20260903051445 75 221 0.0 0.0 0.00 0.00 0.00 93 1017.5
20260903050941 75 223 0.0 0.0 0.00 0.00 0.00 93 1017.4
20260903050440 75 222 0.0 0.0 0.00 0.00 0.00 93 1017.5
20260903045934 75 222 0.0 0.0 0.00 0.00 0.00 93 1017.8
20260903045430 75 221 0.0 0.0 0.00 0.00 0.00 93 1017.7
20260903044927 75 221 0.0 0.0 0.00 0.00 0.00 93 1017.4
20260903044427 76 221 0.0 0.0 0.00 0.00 0.00 93 1017.5
20260903043923 76 222 0.0 0.0 0.00 0.00 0.00 92 1017.5
20260903043419 76 223 0.0 0.0 0.00 0.00 0.00 92 1017.4
20260903042917 76 223 0.0 0.0 0.00 0.00 0.00 92 1017.5
20260903042413 76 223 0.0 0.0 0.00 0.00 0.00 92 1017.4
20260903041908 76 223 0.0 0.0 0.00 0.00 0.00 92 1017.5
20260903041404 76 223 0.0 0.0 0.00 0.00 0.00 91 1017.3
20260903040900 76 223 0.0 0.0 0.00 0.00 0.00 91 1017.4
20260903040359 76 223 0.0 0.0 0.00 0.00 0.00 91 1017.2
20260903035854 76 220 0.0 0.0 0.00 0.00 0.00 92 1017.3
20260903035350 77 220 0.0 0.0 0.00 0.00 0.00 92 1017.4
20260903034840 77 220 0.0 0.0 0.00 0.00 0.00 91 1017.4
20260903034335 77 220 0.0 0.0 0.00 0.00 0.00 91 1017.8
20260903033830 77 218 0.0 0.0 0.00 0.00 0.00 91 1017.5
20260903033325 77 221 0.0 0.0 0.00 0.00 0.00 91 1017.7
20260903032825 77 221 0.0 0.0 0.00 0.00 0.00 91 1017.5
20260903032321 77 220 0.0 0.0 0.00 0.00 0.00 90 1017.5
20260903031816 78 221 0.0 0.0 0.00 0.00 0.00 90 1017.8
20260903031315 78 221 0.0 0.0 0.00 0.00 0.00 89 1017.8
20260903030811 78 221 0.0 0.0 0.00 0.00 0.00 89 1017.5
20260903030307 78 221 0.0 0.0 0.00 0.00 0.00 89 1017.9
20260903025802 78 220 0.0 0.0 0.00 0.00 0.00 89 1017.7
20260903025258 78 221 0.0 0.0 0.00 0.00 0.00 89 1017.5
20260903024752 78 221 0.0 0.0 0.00 0.00 0.00 89 1017.4
20260903024251 78 220 0.0 0.0 0.00 0.00 0.00 89 1017.5
20260903023747 78 221 0.0 0.0 0.00 0.00 0.00 89 1017.5
20260903023243 78 222 0.0 0.0 0.00 0.00 0.00 88 1017.3
20260903022743 79 224 0.0 0.0 0.00 0.00 0.00 89 1017.5
20260903022242 79 224 0.0 0.0 0.00 0.00 0.00 89 1017.4
20260903021742 79 224 0.0 0.0 0.00 0.00 0.00 89 1017.5
20260903021237 79 224 0.0 0.0 0.00 0.00 0.00 89 1017.3
20260903020737 79 224 0.0 0.0 0.00 0.00 0.00 88 1017.5
20260903020231 79 225 0.0 0.0 0.00 0.00 0.00 87 1017.5
20260903015727 80 224 0.0 0.0 0.00 0.00 0.00 87 1017.3
20260903015222 80 224 0.0 0.0 0.00 0.00 0.00 86 1017.4
20260903014718 80 225 0.0 0.0 0.00 0.00 0.00 86 1017.3
20260903014217 80 225 0.0 0.0 0.00 0.00 0.00 85 1017.1
20260903013712 80 224 0.0 0.0 0.00 0.00 0.00 84 1017.1
20260903013211 80 224 0.0 0.0 0.00 0.00 0.00 83 1017.2
20260903012710 81 224 0.0 0.0 0.00 0.00 0.00 83 1017.1
20260903012209 81 224 0.0 0.0 0.00 0.00 0.00 82 1016.9
20260903011704 81 224 0.0 0.0 0.00 0.00 0.00 82 1016.9
20260903011158 81 224 0.0 0.0 0.00 0.00 0.00 80 1016.7
20260903010654 81 224 0.0 0.0 0.00 0.00 0.00 80 1016.8
20260903010153 82 224 0.0 0.0 0.00 0.00 0.00 79 1017.0
20260903005652 82 224 0.0 0.0 0.00 0.00 0.00 78 1016.8
20260903005148 82 221 0.0 0.0 0.00 0.00 0.00 78 1016.8
20260903004643 83 221 0.0 0.0 0.00 0.00 0.00 78 1016.8
20260903004138 83 221 0.0 0.0 0.00 0.00 0.00 77 1016.4
20260903003634 83 221 0.0 0.0 0.00 0.00 0.00 77 1016.6
20260903003129 83 225 0.0 0.0 0.00 0.00 0.00 76 1016.5
20260903002624 84 225 0.0 0.0 0.00 0.00 0.00 75 1016.6
20260903002118 84 225 0.0 0.0 0.00 0.00 0.00 74 1016.5
20260903001613 84 225 0.0 0.0 0.00 0.00 0.00 73 1016.4
20260903001112 85 226 0.0 0.0 0.00 0.00 0.00 71 1016.4
20260903000608 85 225 0.0 0.0 0.00 0.00 0.00 72 1016.3
20260902235601 87 222 0.0 1.0 0.00 0.00 0.00 69 1016.4
20260902235056 87 222 0.0 0.0 0.00 0.00 0.00 68 1016.3
20260902234550 88 225 0.0 0.0 0.00 0.00 0.00 67 1016.3
20260902234049 88 223 0.0 0.0 0.00 0.00 0.00 66 1016.1
20260902233544 89 223 0.0 0.0 0.00 0.00 0.00 64 1016.3
20260902233038 89 226 0.0 0.0 0.00 0.00 0.00 64 1016.3
20260902232537 90 228 0.0 0.0 0.00 0.00 0.00 64 1016.3
20260902232032 91 223 0.0 0.0 0.00 0.00 0.00 62 1016.5
20260902231526 91 224 0.0 0.0 0.00 0.00 0.00 61 1016.4
20260902231021 92 224 0.0 0.0 0.00 0.00 0.00 60 1016.2
20260902230520 92 225 0.0 0.0 0.00 0.00 0.00 59 1016.2
20260902230015 93 224 0.0 0.0 0.00 0.00 0.00 58 1016.1
20260902225510 93 225 0.0 0.0 0.00 0.00 0.00 57 1016.3
20260902225010 93 223 0.0 0.0 0.00 0.00 0.00 55 1016.3
20260902224509 94 225 0.0 1.0 0.00 0.00 0.00 55 1016.5
20260902224005 94 241 1.0 2.0 0.00 0.00 0.00 55 1016.3
20260902223501 94 226 0.0 0.0 0.00 0.00 0.00 54 1016.4
20260902223000 95 226 0.0 0.0 0.00 0.00 0.00 54 1016.2
20260902222458 95 226 0.0 0.0 0.00 0.00 0.00 53 1016.5
20260902221952 95 226 0.0 0.0 0.00 0.00 0.00 50 1016.4
20260902221452 95 223 0.0 0.0 0.00 0.00 0.00 50 1016.3
20260902220947 95 227 0.0 0.0 0.00 0.00 0.00 49 1016.3
20260902220441 95 222 0.0 0.0 0.00 0.00 0.00 49 1016.4
20260902215936 95 224 1.0 1.0 0.00 0.00 0.00 50 1016.4
20260902215432 95 226 0.0 1.0 0.00 0.00 0.00 49 1016.6
20260902214928 96 226 0.0 1.0 0.00 0.00 0.00 48 1016.5
20260902214426 96 228 0.0 0.0 0.00 0.00 0.00 48 1016.5
20260902213921 96 235 0.0 1.0 0.00 0.00 0.00 48 1016.5
20260902213417 96 226 0.0 1.0 0.00 0.00 0.00 47 1016.4
20260902212916 96 227 0.0 0.0 0.00 0.00 0.00 47 1016.5
20260902212412 96 228 0.0 1.0 0.00 0.00 0.00 47 1016.6
20260902211908 96 225 0.0 0.0 0.00 0.00 0.00 47 1016.7
20260902211403 97 223 0.0 0.0 0.00 0.00 0.00 47 1016.5
20260902210853 97 215 1.0 2.0 0.00 0.00 0.00 46 1016.6
20260902210352 96 218 0.0 1.0 0.00 0.00 0.00 47 1016.7
20260902205850 97 233 1.0 2.0 0.00 0.00 0.00 48 1016.7
20260902205340 96 221 0.0 1.0 0.00 0.00 0.00 46 1016.7
20260902204835 96 246 2.0 2.0 0.00 0.00 0.00 45 1016.6
20260902204330 96 226 1.0 1.0 0.00 0.00 0.00 46 1016.8
20260902203826 97 229 1.0 1.0 0.00 0.00 0.00 47 1016.7
20260902203321 96 218 1.0 5.0 0.00 0.00 0.00 48 1016.8
20260902202820 96 228 0.0 0.0 0.00 0.00 0.00 47 1017.1
20260902202317 97 236 0.0 0.0 0.00 0.00 0.00 48 1017.1
20260902201813 97 267 2.0 2.0 0.00 0.00 0.00 47 1016.9
20260902201312 97 227 0.0 0.0 0.00 0.00 0.00 46 1017.0
20260902200808 97 202 1.0 2.0 0.00 0.00 0.00 46 1017.1
20260902200302 96 220 0.0 1.0 0.00 0.00 0.00 47 1017.0
20260902195758 97 211 0.0 1.0 0.00 0.00 0.00 47 1017.1
20260902195257 97 188 1.0 2.0 0.00 0.00 0.00 49 1017.1
20260902194753 98 264 2.0 2.0 0.00 0.00 0.00 47 1017.3
20260902194247 97 226 0.0 1.0 0.00 0.00 0.00 49 1017.3
20260902193743 98 238 0.0 0.0 0.00 0.00 0.00 48 1017.4
20260902193238 97 226 1.0 1.0 0.00 0.00 0.00 49 1017.5
20260902192737 97 229 1.0 1.0 0.00 0.00 0.00 48 1017.7
20260902192236 96 243 0.0 1.0 0.00 0.00 0.00 49 1017.5
20260902191731 96 226 0.0 1.0 0.00 0.00 0.00 50 1017.7
20260902191226 96 227 1.0 1.0 0.00 0.00 0.00 49 1018.0
20260902190721 96 234 1.0 1.0 0.00 0.00 0.00 49 1017.8
20260902190221 96 228 0.0 2.0 0.00 0.00 0.00 51 1018.1
20260902185717 96 227 1.0 1.0 0.00 0.00 0.00 51 1018.1
20260902185212 96 238 1.0 2.0 0.00 0.00 0.00 52 1018.2
20260902184712 97 220 0.0 2.0 0.00 0.00 0.00 50 1018.2
20260902184208 98 243 0.0 1.0 0.00 0.00 0.00 50 1018.2
20260902183704 98 217 1.0 2.0 0.00 0.00 0.00 49 1018.2
20260902183200 97 230 0.0 1.0 0.00 0.00 0.00 51 1018.2
20260902182656 97 228 1.0 1.0 0.00 0.00 0.00 52 1018.4
20260902182152 96 229 1.0 2.0 0.00 0.00 0.00 52 1018.4
20260902181648 96 219 0.0 0.0 0.00 0.00 0.00 53 1018.4
20260902181147 96 229 0.0 0.0 0.00 0.00 0.00 55 1018.6
20260902180642 97 241 0.0 0.0 0.00 0.00 0.00 53 1018.4
20260902180138 97 239 1.0 1.0 0.00 0.00 0.00 53 1018.5
20260902175638 97 222 0.0 1.0 0.00 0.00 0.00 54 1018.8
20260902175133 96 219 1.0 1.0 0.00 0.00 0.00 54 1018.8
20260902174630 96 230 0.0 1.0 0.00 0.00 0.00 56 1019.0
20260902174125 96 223 1.0 1.0 0.00 0.00 0.00 55 1018.9
20260902173620 94 228 0.0 1.0 0.00 0.00 0.00 57 1019.2
20260902173115 94 222 0.0 1.0 0.00 0.00 0.00 59 1019.2
20260902172609 95 238 1.0 1.0 0.00 0.00 0.00 57 1019.2
20260902172103 95 231 1.0 1.0 0.00 0.00 0.00 58 1019.4
20260902171559 93 220 0.0 1.0 0.00 0.00 0.00 58 1019.4
20260902171055 93 224 1.0 1.0 0.00 0.00 0.00 59 1019.3
20260902170550 94 226 0.0 2.0 0.00 0.00 0.00 58 1019.4
20260902170046 93 225 0.0 1.0 0.00 0.00 0.00 58 1019.7
20260902165545 94 235 1.0 2.0 0.00 0.00 0.00 58 1019.6
20260902165040 93 212 0.0 1.0 0.00 0.00 0.00 61 1019.6
20260902164535 92 226 1.0 2.0 0.00 0.00 0.00 60 1019.6
20260902164033 93 223 0.0 1.0 0.00 0.00 0.00 59 1020.0
20260902163530 92 221 0.0 1.0 0.00 0.00 0.00 60 1020.1
20260902163028 92 215 0.0 1.0 0.00 0.00 0.00 62 1019.9
20260902162527 92 224 0.0 0.0 0.00 0.00 0.00 63 1020.0
20260902162023 92 225 0.0 0.0 0.00 0.00 0.00 66 1020.0
20260902161518 91 226 0.0 0.0 0.00 0.00 0.00 65 1020.2
20260902161014 90 236 1.0 2.0 0.00 0.00 0.00 65 1020.2
20260902160509 91 229 0.0 1.0 0.00 0.00 0.00 62 1020.3
20260902160010 91 222 0.0 1.0 0.00 0.00 0.00 65 1020.3
20260902155502 90 237 1.0 1.0 0.00 0.00 0.00 65 1020.4
20260902155001 90 225 0.0 0.0 0.00 0.00 0.00 67 1020.3
20260902154456 90 222 1.0 2.0 0.00 0.00 0.00 66 1020.3
20260902153952 89 213 2.0 2.0 0.00 0.00 0.00 68 1020.4
20260902153450 89 214 1.0 2.0 0.00 0.00 0.00 69 1020.7
20260902152945 89 217 1.0 1.0 0.00 0.00 0.00 68 1020.4
20260902152442 88 214 0.0 1.0 0.00 0.00 0.00 70 1020.6
20260902151937 88 201 1.0 1.0 0.00 0.00 0.00 72 1020.6
20260902151433 88 217 0.0 0.0 0.00 0.00 0.00 71 1020.5
20260902150926 87 216 0.0 1.0 0.00 0.00 0.00 72 1020.5
20260902150423 87 218 0.0 2.0 0.00 0.00 0.00 73 1020.4
20260902145922 86 217 0.0 0.0 0.00 0.00 0.00 72 1020.5
20260902145418 86 219 1.0 1.0 0.00 0.00 0.00 74 1020.5
20260902144913 85 217 1.0 1.0 0.00 0.00 0.00 74 1020.5
20260902144409 85 221 0.0 0.0 0.00 0.00 0.00 76 1020.6
20260902143903 85 218 0.0 0.0 0.00 0.00 0.00 76 1020.5
20260902143358 84 224 0.0 0.0 0.00 0.00 0.00 77 1020.4
20260902142853 83 220 0.0 1.0 0.00 0.00 0.00 78 1020.3
20260902142349 83 216 0.0 1.0 0.00 0.00 0.00 80 1020.5
20260902141844 83 217 0.0 1.0 0.00 0.00 0.00 79 1020.6
20260902141340 83 211 0.0 0.0 0.00 0.00 0.00 81 1020.4
20260902140839 82 225 0.0 0.0 0.00 0.00 0.00 82 1020.6
20260902140334 83 223 0.0 0.0 0.00 0.00 0.00 81 1020.4
20260902135833 82 228 0.0 0.0 0.00 0.00 0.00 82 1020.5
20260902135330 80 227 0.0 0.0 0.00 0.00 0.00 85 1020.5
20260902134828 80 227 0.0 0.0 0.00 0.00 0.00 87 1020.4
20260902134324 79 225 0.0 0.0 0.00 0.00 0.00 88 1020.9
20260902133820 78 229 0.0 0.0 0.00 0.00 0.00 89 1020.6
20260902133319 77 225 0.0 0.0 0.00 0.00 0.00 91 1020.6
20260902132815 77 226 0.0 0.0 0.00 0.00 0.00 91 1020.5
20260902132310 76 224 0.0 0.0 0.00 0.00 0.00 92 1020.5
20260902131805 76 229 0.0 0.0 0.00 0.00 0.00 93 1020.8
20260902131302 75 227 0.0 0.0 0.00 0.00 0.00 94 1020.7